This demonstration page uses our WeatherBlox Daily Observations layout. Learn more.

41.55636, -103.73856

Hourly Observations for March 25, 2015

Temp ( °F °C ) Dew Point ( °F °C ) Humidity (%) Winds ( mph kmh ) Pressure ( in mb ) Visibility ( mi km ) Precip ( " mm )
12:53 am 00:53 Mostly Cloudy 44 6.7 33 0.6 65 65 WNW 7 11 29.9 1013 10 16.0934 0 0
1:53 am 01:53 Cloudy 43 6.1 34 1.1 71 71 W 7 11 29.91 1013 10 16.0934 0 0
2:53 am 02:53 Cloudy 43 6.1 34 1.1 71 71 NW 7 11 29.94 1014 10 16.0934 0 0
3:53 am 03:53 Partly Cloudy 41 5 31 -0.6 67 67 NE 7 11 29.96 1014 10 16.0934 0 0
4:53 am 04:53 Cloudy 40 4.4 30 -1.1 68 68 N 5 7 29.99 1016 10 16.0934 0 0
5:53 am 05:53 Cloudy with Light Rain 37 2.8 32 0 82 82 NE 12 19 30.05 1018 10 16.0934 0 0.0254
6:09 am 06:09 Cloudy with Light Snow 36 2.2 32 0 86 86 ENE 9 15 30.15 1021 5 8.0467 0 0.0254
8:39 am 08:39 Cloudy with Light Rain 36 2.2 35 1.7 97 97 WSW 3 6 30.21 1023 9 14.48406 0 0.0254
8:53 am 08:53 Mostly Cloudy 38 3.3 33 0.6 83 83 NNW 9 15 30.15 1021 10 16.0934 0 0.0254
9:16 am 09:16 Mostly Cloudy 39 3.9 33 0.6 79 79 NNW 8 13 30.18 1022 10 16.0934 0 0
9:26 am 09:26 Mostly Cloudy 39 3.9 32 0 76 76 N 10 17 30.18 1022 10 16.0934 0 0
9:53 am 09:53 Partly Cloudy 41 5 32 0 70 70 NNW 9 15 30.18 1022 10 16.0934 0 0
10:53 am 10:53 Partly Cloudy 42 5.6 30 -1.1 62 62 N 8 13 30.21 1023 10 16.0934 0 0
11:53 am 11:53 Sunny 45 7.2 27 -2.8 49 49 N 6 9 30.2 1023 10 16.0934 0 0
12:53 pm 12:53 Partly Cloudy 49 9.4 23 -5 36 36 N 14 22 30.19 1022 10 16.0934 0 0
1:53 pm 13:53 Mostly Sunny 51 10.6 23 -5 33 33 NNW 12 19 30.18 1022 10 16.0934 0 0
2:53 pm 14:53 Mostly Cloudy 53 11.7 23 -5 31 31 NNW 20 31 30.17 1022 10 16.0934 0 0
3:53 pm 15:53 Partly Cloudy 52 11.1 23 -5 32 32 NW 13 20 30.16 1022 10 16.0934 0 0
4:53 pm 16:53 Mostly Cloudy 49 9.4 23 -5 36 36 N 16 26 30.18 1022 10 16.0934 0 0
5:53 pm 17:53 Cloudy 49 9.4 24 -4.4 38 38 N 17 28 30.2 1023 10 16.0934 0 0
6:53 pm 18:53 Partly Cloudy 45 7.2 24 -4.4 44 44 N 8 13 30.22 1024 10 16.0934 0 0
7:53 pm 19:53 Cloudy 44 6.7 26 -3.3 49 49 N 7 11 30.24 1024 10 16.0934 0 0
8:53 pm 20:53 Partly Cloudy 40 4.4 26 -3.3 58 58 N 6 9 30.26 1025 10 16.0934 0 0
9:53 pm 21:53 Clear 36 2.2 25 -3.9 64 64 NNE 8 13 30.27 1025 10 16.0934 0 0
10:53 pm 22:53 Clear 37 2.8 25 -3.9 62 62 S 3 6 30.26 1025 10 16.0934 0 0
11:53 pm 23:53 Clear 28 -2.2 23 -5 81 81 NNE 3 6 30.26 1025 10 16.0934 0 0

Powered by AerisWeather